This is the latest recevied weather packets stored in our database for station/object K5UBE. If no packets are shown the sender has not sent any weather packets the latest 10 day(s).
| Time | Temp. | Humidity | Pressure | Rain* | Wind** | Luminosity | Snow |
|---|---|---|---|---|---|---|---|
| 1777652835 | 8.33° C | 88% | 1022.8 hPa | 0 mm | - | - | - |
| 1777652532 | 8.33° C | 87% | 1022.7 hPa | 1.78 mm | - | - | - |
| 1777652230 | 7.78° C | 87% | 1022.8 hPa | 1.78 mm | - | - | - |
| 1777651927 | 8.33° C | 88% | 1022.6 hPa | 0 mm | - | - | - |
| 1777651623 | 7.78° C | 88% | 1022.6 hPa | 0 mm | - | - | - |
| 1777651320 | 7.78° C | 87% | 1022.5 hPa | 0 mm | - | - | - |
| 1777651017 | 7.78° C | 88% | 1022.5 hPa | 0 mm | - | - | - |
| 1777650714 | 7.78° C | 88% | 1022.2 hPa | 0 mm | - | - | - |
| 1777650411 | 7.78° C | 87% | 1022.2 hPa | 1.27 mm | - | - | - |
| 1777650108 | 7.78° C | 84% | 1022.3 hPa | 1.27 mm | - | - | - |
| 1777649806 | 7.78° C | 86% | 1022 hPa | 0 mm | - | - | - |
| 1777649503 | 7.78° C | 87% | 1022 hPa | 1.78 mm | - | - | - |
| 1777649199 | 7.22° C | 87% | 1022 hPa | 1.78 mm | - | - | - |
| 1777648896 | 7.22° C | 87% | 1021.7 hPa | 0 mm | - | - | - |
| 1777648290 | 7.22° C | 85% | 1021.7 hPa | 1.78 mm | - | - | - |
| 1777647986 | 7.78° C | 85% | 1021.8 hPa | 1.78 mm | - | - | - |
| 1777647682 | 7.78° C | 82% | 1021.6 hPa | 1.78 mm | - | - | - |
| 1777647378 | 7.78° C | 81% | 1021.7 hPa | 0 mm | - | - | - |
| 1777647077 | 7.78° C | 82% | 1021.5 hPa | 0 mm | - | - | - |
| 1777646773 | 8.33° C | 83% | 1021.4 hPa | 0 mm | - | - | - |
| 1777646472 | 8.33° C | 82% | 1021.5 hPa | 0 mm | - | - | - |
| 1777646169 | 8.33° C | 81% | 1021.3 hPa | 0 mm | - | - | - |
| 1777645866 | 8.33° C | 81% | 1021 hPa | 0 mm | - | - | - |
| 1777645563 | 8.33° C | 81% | 1021 hPa | 0 mm | - | - | - |
| 1777645259 | 8.33° C | 87% | 1021.1 hPa | 0 mm | - | - | - |
* Rain latest hour (hover to see other rain measurements)
** Current wind speed in m/s (hover to see current wind gust speed)